Weather Roundup
Issued by NWS Chicago, IL

Home | Current Version | Previous Version | Text Only | Print | Product List | Glossary On
Versions: 1 2 3 4 5 6 7 8 9 10 11 12 13 14 15 16 17 18 19 20 21 22 23 24 25 26 27 28 29 30 31 32 33 34 35 36 37 38 39 40 41 42 43 44 45 46 47 48 49 50
000
NZUS59 KLOT 220708
HRRLOT

CHICAGO AREA WEATHER ROUNDUP
NATIONAL WEATHER SERVICE CHICAGO/ROMEOVILLE IL
100 AM CST WED NOV 22 2017

NOTE: "FAIR" INDICATES FEW OR NO CLOUDS BELOW 12,000 FEET WITH NO
SIGNIFICANT WEATHER AND/OR OBSTRUCTIONS TO VISIBILITY.

* THESE STATIONS ARE NOT UNDER NWS QUALITY CONTROL. THEY ALSO MAY NOT
  REPORT WEATHER SUCH AS PRECIPITATION OR FOG.

ILZ005-006-012>014-019>023-220800-
NORTHEAST ILLINOIS

CITY           SKY/WX    TMP DP  RH WIND       PRES   REMARKS
OHARE          CLEAR     27  14  58 NW12      30.22R WCI  17
MIDWAY         CLEAR     27  15  61 N14       30.23R WCI  16
AURORA         PTCLDY    21  17  84 NW8       30.24S WCI  11
JOLIET*        CLEAR     26  18  70 CALM      30.25R
WAUKEGAN       CLEAR     23  15  71 NW6       30.22R WCI  16
DUPAGE AIRPORT CLEAR     23  16  74 NW8       30.23R WCI  14
WHEELING       CLEAR     26  16  65 NW8       30.23F WCI  18
KANKAKEE*      CLEAR     26  17  67 N13       30.24S WCI  15
LEWIS AIRPORT* CLEAR     24  17  73 NW6       30.24S WCI  17
NORTHERLY ISL    N/A     28  15  58 W5          N/A  WCI  23
$$

WIZ051-052-058>065-066-070>072-220800-
SOUTHEAST WISCONSIN

CITY           SKY/WX    TMP DP  RH WIND       PRES   REMARKS
MILWAUKEE      CLEAR     25  13  60 NW7       30.22R WCI  17
KENOSHA*       CLEAR     21  14  74 W6        30.22R WCI  13
RACINE*        CLEAR     24  14  65 NW8       30.23R WCI  15
BURLINGTON     CLEAR     23  19  86 NW3       30.23R
WEST BEND      CLEAR     21  12  68 NW5       30.22R WCI  15
$$

INZ001>003-010>013-019-020-220800-
NORTHWEST INDIANA

CITY           SKY/WX    TMP DP  RH WIND       PRES   REMARKS
GARY*          CLEAR     29  15  56 W10       30.23R WCI  20
MICHIGAN CITY* NOT AVBL
RENSSELAER*    NOT AVBL
VALPARAISO     CLOUDY    32  21  64 NW8       30.19R WCI  25
$$

LMZ740>746-220800-
SOUTHERN LAKE MICHIGAN

STATION/POSITION TIME  SKY/WX   TEMP WIND        PRES    VSBY
                                AIR  DIR/SP/G
                 (UTC)          (F)  (DEG/KT/KT) (MB)    (MI)
HARRISON CRIB    0640            29  310/ 18/ 20   N/A
BURNHAM HARBOR   0700            28  320/  9/ 16   N/A
CALUMET HARBOR   0642                300/ 10/ 12 1022.8R
BURNS HARBOR     0640            33  320/ 14/ 19 1023.0R
MICHIGAN CITY    0640            33  320/ 19/ 20   N/A
$$

ABBREVIATIONS USED IN REMARKS
   TC - TEMPERATURE IN CELSIUS
  WCI - WIND CHILL INDEX
   HX - HEAT INDEX
  VSB - VISIBILITY
$$




USA.gov is the U.S. government's official web portal to all federal, state and local government web resources and services.